Voltar ao catálogo

INMARSAT 3-F2

AtivoComunicaçõesGEO
NORAD 24307·PAYLOAD·🇮🇲 IM

Lançado Sep 6, 1996 de Baikonur Cosmodrome

Loading…

TLE

AtualizadoSource: Space-Track

Época: Sep 14, 2026, 12:21 UTC

1 24307U 96053A   26257.51516198  .00000090  00000-0  00000+0 0  9995
2 24307  10.0546  53.0016 0005738 118.7543  64.4118  0.99977811109815

Acompanhe INMARSAT 3-F2 em tempo real com AllMySat

Download on the App Store